Home   Weather   Wals-Siezenheim   Past weeks
Flag for Austria

Past Weather in Wals-Siezenheim, Salzburg, Austria — Yesterday and Last 2 Weeks

Now
43 °F

Fog.


Feels Like: 40 °F
Forecast: 65 / 53 °F
Wind: 5 mph from Northwest

Location: Salzburg-Flughafen

Current Time: Oct 20, 2019 at 8:21:03 am

Latest Report: Oct 20, 2019 at 7:50 am


Visibility: 5 mi

Pressure: 29.86 "Hg

Humidity: 100%

Dew Point: 43 °F

Location of Wals-SiezenheimLocation

Past Weather in Wals-Siezenheim — Graph

°F

Wals-Siezenheim Temperature Yesterday

Maximum temperature yesterday: 63 °F (at 12:20 pm)
Minimum temperature yesterday: 43 °F (at 6:50 am)
Average temperature yesterday: 53 °F

High & Low Weather Summary for the Past Weeks

 TemperatureHumidityPressure
High77 °F (Oct 15, 3:20 pm)100% (Oct 6, 8:20 pm)30.24 "Hg (Oct 6, 8:20 pm)
Low41 °F (Oct 6, 6:20 am)36% (Oct 15, 3:20 pm)29.68 "Hg (Oct 15, 5:50 pm)
Average53 °F79%30.00 "Hg
* Reported Oct 5 7:20 am — Oct 20 7:20 am, Wals-Siezenheim. Weather by CustomWeather, © 2019

Note: Actual official high and low records may vary slightly from our data, if they occured in-between our weather recording intervals... More about our weather records

Advertising

Wals-Siezenheim Weather History for the Previous 24 Hours

Scroll right to see more
 ConditionsComfort  
Time TempWeatherWind HumidityBarometerVisibility
7:20 am
Sun, Oct 20
43 °FFog.6 mph100%29.86 "HgN/A
6:50 am41 °FFog.2 mph100%29.86 "HgN/A
6:20 am41 °FFog.2 mph100%29.86 "HgN/A
5:50 am41 °FSnow. Passing clouds.1 mph100%29.86 "HgN/A
5:20 am41 °FSnow. Overcast.2 mph100%29.86 "HgN/A
4:50 am43 °FPassing clouds.1 mph100%29.83 "HgN/A
4:20 am43 °FPassing clouds.2 mph93%29.83 "HgN/A
3:50 am43 °FPassing clouds.1 mph93%29.83 "HgN/A
3:20 am43 °FPassing clouds.2 mph93%29.83 "Hg6 mi
2:50 am43 °FPassing clouds.1 mph100%29.83 "HgN/A
2:20 am45 °FPassing clouds.2 mph93%29.83 "Hg5 mi
1:50 am45 °FPassing clouds.1 mph100%29.83 "Hg5 mi
1:20 am45 °FPassing clouds.2 mph100%29.86 "Hg4 mi
12:50 am46 °FPassing clouds.2 mph93%29.86 "HgN/A
12:20 am48 °FPassing clouds.1 mph100%29.86 "Hg5 mi
11:50 pm
Sat, Oct 19
46 °FPassing clouds.2 mph100%29.86 "Hg4 mi
11:20 pm46 °FPassing clouds.2 mph100%29.86 "Hg4 mi
10:20 pm48 °FClear.2 mph100%29.86 "Hg10 mi
9:50 pm48 °FClear.2 mph100%29.86 "Hg10 mi
9:20 pm52 °FPassing clouds.5 mph94%29.89 "HgN/A
8:50 pm52 °FPassing clouds.5 mph94%29.89 "HgN/A
8:20 pm54 °FClear.5 mph88%29.89 "Hg10 mi
7:50 pm52 °FClear.3 mph94%29.89 "Hg10 mi
7:20 pm54 °FPassing clouds.3 mph88%29.92 "HgN/A
6:50 pm55 °FPassing clouds.5 mph82%29.92 "HgN/A
6:20 pm59 °FPassing clouds.5 mph72%29.92 "HgN/A
5:50 pm59 °FPartly sunny.3 mph72%29.92 "HgN/A
5:20 pm59 °FPartly sunny.2 mph77%29.92 "HgN/A
4:50 pm59 °FPartly sunny.5 mph77%29.92 "HgN/A
4:20 pm59 °FPartly sunny.7 mph77%29.92 "HgN/A
3:50 pm59 °FPartly sunny.6 mph77%29.92 "HgN/A
3:20 pm59 °FPartly sunny.8 mph77%29.92 "HgN/A
2:50 pm59 °FPartly sunny.10 mph77%29.92 "HgN/A
2:20 pm61 °FBroken clouds.12 mph72%29.92 "HgN/A
1:50 pm61 °FBroken clouds.12 mph72%29.89 "HgN/A
1:20 pm63 °FBroken clouds.10 mph64%29.89 "HgN/A
12:50 pm61 °FBroken clouds.5 mph63%29.89 "HgN/A
12:20 pm63 °FScattered clouds.3 mph59%29.86 "HgN/A
11:50 am61 °FScattered clouds.3 mph63%29.86 "HgN/A
11:20 am61 °FScattered clouds.3 mph63%29.86 "HgN/A
10:50 am57 °FScattered clouds.7 mph72%29.86 "HgN/A
10:20 am55 °FPartly sunny.2 mph77%29.89 "HgN/A
9:50 am54 °FPartly sunny.3 mph82%29.89 "HgN/A
9:20 am52 °FPartly sunny.1 mph88%29.92 "HgN/A
8:50 am46 °FPartly sunny.1 mph93%29.92 "HgN/A
8:20 am45 °FFog.3 mph93%29.92 "HgN/A
Weather by CustomWeather, © 2019

See weather overview